TimeWET,TemperatureF,Dew PointF,Humidity,Sea Level PressureIn,VisibilityMPH,Wind Direction,Wind SpeedMPH,Gust SpeedMPH,PrecipitationIn,Events,Conditions,WindDirDegrees,DateUTC
12:00 AM,51,50,97,29.98,6,SSW,6.9,,,,Mostly Cloudy,210,2013-03-24 00:00:00
12:00 AM,50.0,50.0,100,29.98,6.2,SW,5.8,-,N/A,,Mostly Cloudy,220,2013-03-24 00:00:00
12:30 AM,51.8,50.0,94,29.98,6.2,SSW,5.8,-,N/A,,Mostly Cloudy,210,2013-03-24 00:30:00
1:00 AM,51.8,50.0,94,29.98,6.2,SSW,4.6,-,N/A,,Mostly Cloudy,210,2013-03-24 01:00:00
1:30 AM,51.8,50.0,94,29.98,6.2,SSW,5.8,-,N/A,,Mostly Cloudy,210,2013-03-24 01:30:00
2:00 AM,51.8,50.0,94,29.98,6.2,SW,4.6,-,N/A,,Mostly Cloudy,220,2013-03-24 02:00:00
2:30 AM,50.0,48.2,94,29.98,6.2,SSW,4.6,-,N/A,,Mostly Cloudy,200,2013-03-24 02:30:00
3:00 AM,50.0,48.2,94,29.98,6.2,SSW,4.6,-,N/A,,Mostly Cloudy,200,2013-03-24 03:00:00
3:30 AM,50.0,48.2,94,29.98,6.2,SSW,5.8,-,N/A,,Mostly Cloudy,210,2013-03-24 03:30:00
4:00 AM,50.0,48.2,94,29.98,6.2,SSW,3.5,-,N/A,,Scattered Clouds,200,2013-03-24 04:00:00
4:30 AM,48.2,46.4,93,29.98,6.2,South,3.5,-,N/A,,Scattered Clouds,180,2013-03-24 04:30:00
5:00 AM,48.2,46.4,93,29.98,6.2,South,3.5,-,N/A,,Scattered Clouds,190,2013-03-24 05:00:00
5:30 AM,46.4,44.6,93,29.98,6.2,Calm,Calm,-,N/A,,Scattered Clouds,0,2013-03-24 05:30:00
5:49 AM,47,46,92,30.02,6,Calm,Calm,,,,Partly Cloudy,,2013-03-24 05:49:00
6:00 AM,46.4,46.4,100,29.98,6.2,Calm,Calm,-,N/A,,Scattered Clouds,0,2013-03-24 06:00:00
6:30 AM,46.4,44.6,93,30.01,6.2,Calm,Calm,-,N/A,,Scattered Clouds,0,2013-03-24 06:30:00
7:00 AM,46.4,44.6,93,30.01,6.2,Calm,Calm,-,N/A,,Partly Cloudy,0,2013-03-24 07:00:00
7:30 AM,51.8,48.2,88,30.01,6.2,Calm,Calm,-,N/A,,Partly Cloudy,0,2013-03-24 07:30:00
8:00 AM,55.4,48.2,77,30.04,-9999.0,Calm,Calm,-,N/A,,Clear,0,2013-03-24 08:00:00
8:30 AM,57.2,48.2,72,30.04,-9999.0,Calm,Calm,-,N/A,,Clear,0,2013-03-24 08:30:00
9:00 AM,59,50,65,30.04,6,Calm,Calm,,,,,,2013-03-24 09:00:00
9:00 AM,59.0,50.0,72,30.06,-9999.0,Calm,Calm,-,N/A,,Clear,0,2013-03-24 09:00:00
9:30 AM,60.8,50.0,68,30.06,-9999.0,Calm,Calm,-,N/A,,Clear,0,2013-03-24 09:30:00
10:00 AM,60.8,48.2,63,30.06,6.2,Variable,1.2,-,N/A,,Scattered Clouds,0,2013-03-24 10:00:00
10:30 AM,60.8,42.8,52,30.06,6.2,Variable,2.3,-,N/A,,Scattered Clouds,0,2013-03-24 10:30:00
11:00 AM,64.4,42.8,45,30.06,6.2,Calm,Calm,-,N/A,,Scattered Clouds,0,2013-03-24 11:00:00
11:30 AM,64.4,44.6,49,30.06,6.2,Calm,Calm,-,N/A,,Scattered Clouds,0,2013-03-24 11:30:00
12:00 PM,64,40,30,30.02,6,Calm,Calm,,,,Partly Cloudy,,2013-03-24 12:00:00
12:00 PM,64.4,41.0,42,30.04,6.2,Calm,Calm,-,N/A,,Scattered Clouds,0,2013-03-24 12:00:00
12:30 PM,66.2,41.0,40,30.04,6.2,Calm,Calm,-,N/A,,Scattered Clouds,0,2013-03-24 12:30:00
1:00 PM,66.2,41.0,40,30.04,6.2,NNE,4.6,-,N/A,,Scattered Clouds,20,2013-03-24 13:00:00
1:30 PM,66.2,37.4,35,30.01,6.2,NW,4.6,-,N/A,,Scattered Clouds,310,2013-03-24 13:30:00
2:00 PM,68.0,37.4,33,30.01,6.2,NW,2.3,-,N/A,,Partly Cloudy,320,2013-03-24 14:00:00
2:30 PM,68.0,37.4,33,30.01,6.2,Calm,Calm,-,N/A,,Partly Cloudy,0,2013-03-24 14:30:00
3:00 PM,69,39,23,29.97,6,Calm,Calm,,,,Scattered Clouds,,2013-03-24 15:00:00
3:00 PM,68.0,39.2,35,30.01,6.2,Variable,1.2,-,N/A,,Partly Cloudy,0,2013-03-24 15:00:00
3:30 PM,69.8,41.0,35,30.01,6.2,WNW,4.6,-,N/A,,Partly Cloudy,300,2013-03-24 15:30:00
4:00 PM,69.8,41.0,35,30.01,6.2,NNW,6.9,-,N/A,,Partly Cloudy,330,2013-03-24 16:00:00
4:30 PM,69.8,39.2,33,30.01,6.2,NNW,3.5,-,N/A,,Partly Cloudy,340,2013-03-24 16:30:00
5:00 PM,69.8,39.2,33,30.04,6.2,NW,4.6,-,N/A,,Partly Cloudy,310,2013-03-24 17:00:00
5:30 PM,69.8,42.8,38,30.04,6.2,North,3.5,-,N/A,,Scattered Clouds,350,2013-03-24 17:30:00
6:00 PM,68,42,28,30.00,6,NW,8.1,,,,Partly Cloudy,320,2013-03-24 18:00:00
6:00 PM,68.0,41.0,37,30.04,6.2,NW,5.8,-,N/A,,Scattered Clouds,320,2013-03-24 18:00:00
6:30 PM,68.0,42.8,40,30.04,6.2,NNW,4.6,-,N/A,,Scattered Clouds,340,2013-03-24 18:30:00
7:00 PM,62.6,41.0,45,30.04,6.2,NNW,5.8,-,N/A,,Scattered Clouds,330,2013-03-24 19:00:00
7:30 PM,62.6,41.0,45,30.06,6.2,NNW,4.6,-,N/A,,Partly Cloudy,330,2013-03-24 19:30:00
8:00 PM,60.8,42.8,52,30.06,6.2,NNW,2.3,-,N/A,,Partly Cloudy,340,2013-03-24 20:00:00
8:30 PM,60.8,44.6,55,30.06,6.2,North,5.8,-,N/A,,Partly Cloudy,350,2013-03-24 20:30:00
9:00 PM,60,47,52,30.08,6,NNE,4.6,,,,,20,2013-03-24 21:00:00
9:00 PM,59.0,46.4,63,30.09,-9999.0,Variable,2.3,-,N/A,,Clear,0,2013-03-24 21:00:00
9:30 PM,59.0,48.2,67,30.09,-9999.0,NNE,6.9,-,N/A,,Clear,20,2013-03-24 21:30:00
10:00 PM,57.2,48.2,72,30.09,-9999.0,North,6.9,-,N/A,,Clear,10,2013-03-24 22:00:00
10:30 PM,57.2,48.2,72,30.12,-9999.0,NNE,6.9,-,N/A,,Clear,30,2013-03-24 22:30:00
11:00 PM,55.4,48.2,77,30.12,-9999.0,NNE,6.9,-,N/A,,Clear,30,2013-03-24 23:00:00
11:30 PM,53.6,48.2,82,30.09,-9999.0,NE,5.8,-,N/A,,Clear,50,2013-03-24 23:30:00